Location: Hylvaty SDH
(49.9612°N, 16.4057°E)
Time: 20:39:22
(UTC+01:00)

Vanguard 1 Rocket - Pass Details

Date: 02 October 2020
Orbit: 656 x 4221 km, 34.3° (Epoch: 30 October)

Event Time Altitude Azimuth Distance (km) Brightness Sun altitude
Rises 00:20:43 0° 276° (W) 7,127 12.1 -43.4°
Reaches altitude 10° 00:26:19 10° 266° (W) 6,559 11.7 -43.5°
Enters shadow 00:37:42 24° 236° (SW) 6,007 11.2 -43.7°
Maximum altitude 00:42:48 26° 220° (SW) 6,034 - -43.7°
Drops below altitude 10° 01:01:08 10° 174° (S) 7,206 - -43.6°
Sets 01:07:57 0° 164° (SSE) 7,915 - -43.4°
